Time,TemperatureF,DewpointF,PressureIn,WindDirection,WindDirectionDegrees,WindSpeedMPH,WindSpeedGustMPH,Humidity,HourlyPrecipIn,Conditions,Clouds,dailyrainin,SoftwareType,DateUTC
2013-07-25 00:10:00,53.3,47.1,30.05,ENE,68,0.4,0.4,79,0.00,,,0.00,WUHU216HW,2013-07-25 05:10:00,
2013-07-25 00:20:00,53.0,46.9,30.05,North,0,0.0,0.0,79,0.00,,,0.00,WUHU216HW,2013-07-25 05:20:00,
2013-07-25 00:30:00,53.0,47.2,30.05,North,0,0.0,0.0,80,0.00,,,0.00,WUHU216HW,2013-07-25 05:30:00,
2013-07-25 00:40:00,52.8,46.9,30.04,North,0,0.0,0.0,80,0.00,,,0.00,WUHU216HW,2013-07-25 05:40:00,
2013-07-25 00:50:00,52.8,46.9,30.04,North,0,0.0,0.0,80,0.00,,,0.00,WUHU216HW,2013-07-25 05:50:00,
2013-07-25 01:00:00,52.5,47.1,30.04,North,0,0.0,0.0,81,0.00,,,0.00,WUHU216HW,2013-07-25 06:00:00,
2013-07-25 01:11:00,52.8,47.3,30.04,East,90,1.0,1.1,81,0.00,,,0.00,WUHU216HW,2013-07-25 06:11:00,
2013-07-25 01:21:00,53.0,47.5,30.04,East,90,0.8,0.9,81,0.00,,,0.00,WUHU216HW,2013-07-25 06:21:00,
2013-07-25 01:31:00,52.8,47.3,30.03,North,0,0.0,0.0,81,0.00,,,0.00,WUHU216HW,2013-07-25 06:31:00,
2013-07-25 01:41:00,52.5,47.4,30.03,East,90,0.5,1.1,82,0.00,,,0.00,WUHU216HW,2013-07-25 06:41:00,
2013-07-25 01:52:00,52.8,47.6,30.02,ESE,105,0.7,1.1,82,0.00,,,0.00,WUHU216HW,2013-07-25 06:52:00,
2013-07-25 02:01:00,52.4,47.2,30.02,North,0,0.0,0.0,82,0.00,,,0.00,WUHU216HW,2013-07-25 07:01:00,
2013-07-25 02:12:00,52.0,46.9,30.02,North,0,0.0,0.0,82,0.00,,,0.00,WUHU216HW,2013-07-25 07:12:00,
2013-07-25 02:22:00,52.0,47.2,30.03,ESE,113,0.4,0.4,83,0.00,,,0.00,WUHU216HW,2013-07-25 07:22:00,
2013-07-25 02:32:00,52.0,47.2,30.03,ESE,113,0.4,0.4,83,0.00,,,0.00,WUHU216HW,2013-07-25 07:32:00,
2013-07-25 02:43:00,51.9,47.0,30.03,North,0,0.0,0.0,83,0.00,,,0.00,WUHU216HW,2013-07-25 07:43:00,
2013-07-25 02:53:00,51.7,47.1,30.03,North,0,0.0,0.0,84,0.00,,,0.00,WUHU216HW,2013-07-25 07:53:00,
2013-07-25 03:03:00,51.3,46.7,30.03,North,0,0.0,0.0,84,0.00,,,0.00,WUHU216HW,2013-07-25 08:03:00,
2013-07-25 03:13:00,51.3,46.7,30.04,North,0,0.0,0.0,84,0.00,,,0.00,WUHU216HW,2013-07-25 08:13:00,
2013-07-25 03:23:00,51.3,47.0,30.03,North,0,0.0,0.0,85,0.00,,,0.00,WUHU216HW,2013-07-25 08:23:00,
2013-07-25 03:34:00,51.2,46.9,30.03,ESE,113,0.2,0.2,85,0.00,,,0.00,WUHU216HW,2013-07-25 08:34:00,
2013-07-25 03:44:00,51.2,46.9,30.03,SE,126,0.5,0.9,85,0.00,,,0.00,WUHU216HW,2013-07-25 08:44:00,
2013-07-25 03:54:00,51.2,46.9,30.03,SE,135,0.4,0.9,85,0.00,,,0.00,WUHU216HW,2013-07-25 08:54:00,
2013-07-25 04:04:00,51.0,47.0,30.04,North,0,0.0,0.0,86,0.00,,,0.00,WUHU216HW,2013-07-25 09:04:00,
2013-07-25 04:15:00,50.4,46.4,30.04,North,0,0.0,0.0,86,0.00,,,0.00,WUHU216HW,2013-07-25 09:15:00,
2013-07-25 04:25:00,49.9,45.6,30.04,North,0,0.0,0.0,85,0.00,,,0.00,WUHU216HW,2013-07-25 09:25:00,
2013-07-25 04:35:00,50.0,45.8,30.04,North,0,0.0,0.0,85,0.00,,,0.00,WUHU216HW,2013-07-25 09:35:00,
2013-07-25 04:45:00,50.3,46.0,30.04,North,0,0.0,0.0,85,0.00,,,0.00,WUHU216HW,2013-07-25 09:45:00,
2013-07-25 04:55:00,50.0,46.1,30.05,North,0,0.0,0.0,86,0.00,,,0.00,WUHU216HW,2013-07-25 09:55:00,
2013-07-25 05:06:00,50.3,46.6,30.05,North,0,0.0,0.0,87,0.00,,,0.00,WUHU216HW,2013-07-25 10:06:00,
2013-07-25 05:16:00,50.4,46.7,30.05,North,0,0.0,0.0,87,0.00,,,0.00,WUHU216HW,2013-07-25 10:16:00,
2013-07-25 05:26:00,50.3,46.6,30.05,North,0,0.0,0.0,87,0.00,,,0.00,WUHU216HW,2013-07-25 10:26:00,
2013-07-25 05:36:00,50.4,46.7,30.05,North,0,0.0,0.0,87,0.00,,,0.00,WUHU216HW,2013-07-25 10:36:00,
2013-07-25 05:46:00,50.8,47.1,30.06,North,0,0.0,0.0,87,0.00,,,0.00,WUHU216HW,2013-07-25 10:46:00,
2013-07-25 05:56:00,51.0,47.6,30.05,SE,124,0.6,0.7,88,0.00,,,0.00,WUHU216HW,2013-07-25 10:56:00,
2013-07-25 06:07:00,51.2,47.8,30.05,North,0,0.0,0.0,88,0.00,,,0.00,WUHU216HW,2013-07-25 11:07:00,
2013-07-25 06:17:00,51.9,48.5,30.05,East,83,0.3,0.4,88,0.00,,,0.00,WUHU216HW,2013-07-25 11:17:00,
2013-07-25 06:27:00,53.0,49.6,30.06,SE,143,0.4,1.1,88,0.00,,,0.00,WUHU216HW,2013-07-25 11:27:00,
2013-07-25 06:37:00,53.9,50.5,30.05,ESE,115,0.5,1.1,88,0.00,,,0.00,WUHU216HW,2013-07-25 11:37:00,
2013-07-25 06:47:00,54.9,51.5,30.06,ESE,113,0.6,0.9,88,0.00,,,0.00,WUHU216HW,2013-07-25 11:47:00,
2013-07-25 06:57:00,56.0,52.6,30.06,SE,131,0.7,1.1,88,0.00,,,0.00,WUHU216HW,2013-07-25 11:57:00,
2013-07-25 07:08:00,57.5,53.7,30.06,SW,227,0.6,1.1,87,0.00,,,0.00,WUHU216HW,2013-07-25 12:08:00,
2013-07-25 07:18:00,58.7,54.9,30.06,SSW,204,0.7,2.2,87,0.00,,,0.00,WUHU216HW,2013-07-25 12:18:00,
2013-07-25 07:28:00,60.3,55.9,30.06,SE,139,0.8,1.3,85,0.00,,,0.00,WUHU216HW,2013-07-25 12:28:00,
2013-07-25 07:38:00,64.6,58.9,30.07,SSW,210,0.8,1.3,81,0.00,,,0.00,WUHU216HW,2013-07-25 12:38:00,
2013-07-25 07:48:00,67.1,57.8,30.07,SSW,208,1.1,2.7,71,0.00,,,0.00,WUHU216HW,2013-07-25 12:48:00,
2013-07-25 07:58:00,67.6,59.0,30.06,SW,227,1.0,1.6,73,0.00,,,0.00,WUHU216HW,2013-07-25 12:58:00,
2013-07-25 08:09:00,68.9,59.5,30.07,WSW,251,1.2,1.8,71,0.00,,,0.00,WUHU216HW,2013-07-25 13:09:00,
2013-07-25 08:19:00,68.5,57.5,30.06,SW,231,1.1,1.8,67,0.00,,,0.00,WUHU216HW,2013-07-25 13:19:00,
2013-07-25 08:29:00,69.4,59.2,30.06,SSW,203,0.8,1.1,69,0.00,,,0.00,WUHU216HW,2013-07-25 13:29:00,
2013-07-25 08:40:00,70.3,59.2,30.06,NE,46,0.5,1.1,67,0.00,,,0.00,WUHU216HW,2013-07-25 13:40:00,
2013-07-25 08:50:00,70.3,58.8,30.06,South,177,0.8,1.6,66,0.00,,,0.00,WUHU216HW,2013-07-25 13:50:00,
2013-07-25 08:59:00,72.1,59.7,30.06,SW,233,0.7,1.1,64,0.00,,,0.00,WUHU216HW,2013-07-25 13:59:00,
2013-07-25 09:11:00,72.3,59.0,30.06,WSW,256,0.8,1.3,63,0.00,,,0.00,WUHU216HW,2013-07-25 14:11:00,
2013-07-25 09:21:00,72.5,59.6,30.06,SW,227,0.7,1.1,64,0.00,,,0.00,WUHU216HW,2013-07-25 14:21:00,
2013-07-25 09:31:00,72.5,57.3,30.06,WSW,245,0.9,1.3,59,0.00,,,0.00,WUHU216HW,2013-07-25 14:31:00,
2013-07-25 09:41:00,73.0,58.3,30.06,SW,218,1.3,1.8,60,0.00,,,0.00,WUHU216HW,2013-07-25 14:41:00,
2013-07-25 09:51:00,73.6,60.2,30.06,SW,219,1.2,2.2,63,0.00,,,0.00,WUHU216HW,2013-07-25 14:51:00,
2013-07-25 10:01:00,73.9,58.6,30.06,South,176,1.9,3.6,59,0.00,,,0.00,WUHU216HW,2013-07-25 15:01:00,
2013-07-25 10:12:00,75.8,60.8,30.07,WSW,245,1.6,2.9,60,0.00,,,0.00,WUHU216HW,2013-07-25 15:12:00,
2013-07-25 10:22:00,76.6,59.2,30.06,WSW,241,1.3,2.5,55,0.00,,,0.00,WUHU216HW,2013-07-25 15:22:00,
2013-07-25 10:32:00,75.3,59.4,30.07,WSW,239,1.9,3.4,58,0.00,,,0.00,WUHU216HW,2013-07-25 15:32:00,
2013-07-25 10:42:00,73.8,59.9,30.06,South,186,1.5,2.7,62,0.00,,,0.00,WUHU216HW,2013-07-25 15:42:00,
2013-07-25 10:52:00,74.6,60.3,30.06,SW,234,1.4,2.0,61,0.00,,,0.00,WUHU216HW,2013-07-25 15:52:00,
2013-07-25 11:02:00,75.8,61.8,30.06,SSW,193,1.5,2.5,62,0.00,,,0.00,WUHU216HW,2013-07-25 16:02:00,
2013-07-25 11:13:00,76.8,60.9,30.07,SSW,209,1.5,2.2,58,0.00,,,0.00,WUHU216HW,2013-07-25 16:13:00,
2013-07-25 11:23:00,77.5,61.5,30.06,SSW,202,1.3,2.7,58,0.00,,,0.00,WUHU216HW,2013-07-25 16:23:00,
2013-07-25 11:33:00,78.1,61.6,30.06,SSW,201,1.7,3.4,57,0.00,,,0.00,WUHU216HW,2013-07-25 16:33:00,
2013-07-25 11:43:00,78.4,60.8,30.06,WSW,249,1.9,2.5,55,0.00,,,0.00,WUHU216HW,2013-07-25 16:43:00,
2013-07-25 11:53:00,77.9,61.4,30.06,NNW,342,1.5,2.5,57,0.00,,,0.00,WUHU216HW,2013-07-25 16:53:00,
2013-07-25 12:03:00,78.6,60.5,30.06,SSW,213,2.0,3.6,54,0.00,,,0.00,WUHU216HW,2013-07-25 17:03:00,
2013-07-25 12:14:00,78.8,60.7,30.05,SSW,210,1.6,2.9,54,0.00,,,0.00,WUHU216HW,2013-07-25 17:14:00,
2013-07-25 12:24:00,79.0,61.4,30.05,West,269,1.4,2.7,55,0.00,,,0.00,WUHU216HW,2013-07-25 17:24:00,
2013-07-25 12:34:00,78.4,60.8,30.05,South,170,1.7,2.9,55,0.00,,,0.00,WUHU216HW,2013-07-25 17:34:00,
2013-07-25 12:44:00,77.9,60.9,30.04,SSE,165,1.7,3.4,56,0.00,,,0.00,WUHU216HW,2013-07-25 17:44:00,
2013-07-25 12:55:00,77.3,60.2,30.04,SW,221,1.8,2.5,56,0.00,,,0.00,WUHU216HW,2013-07-25 17:55:00,
2013-07-25 13:04:00,77.8,61.2,30.04,SW,220,1.3,2.5,57,0.00,,,0.00,WUHU216HW,2013-07-25 18:04:00,
2013-07-25 13:15:00,78.8,61.2,30.04,SSW,210,1.9,4.0,55,0.00,,,0.00,WUHU216HW,2013-07-25 18:15:00,
2013-07-25 13:26:00,78.8,60.7,30.04,SSW,204,2.2,3.4,54,0.00,,,0.00,WUHU216HW,2013-07-25 18:26:00,
2013-07-25 13:36:00,78.4,62.4,30.04,SW,222,1.5,3.1,58,0.00,,,0.00,WUHU216HW,2013-07-25 18:36:00,
2013-07-25 13:46:00,78.4,60.3,30.04,SSW,206,2.2,4.3,54,0.00,,,0.00,WUHU216HW,2013-07-25 18:46:00,
2013-07-25 13:56:00,78.6,61.0,30.04,SSW,212,1.8,3.1,55,0.00,,,0.00,WUHU216HW,2013-07-25 18:56:00,
2013-07-25 14:07:00,78.6,61.0,30.03,SW,223,2.4,3.6,55,0.00,,,0.00,WUHU216HW,2013-07-25 19:07:00,
2013-07-25 14:17:00,77.8,61.7,30.03,SSW,211,1.9,4.0,58,0.00,,,0.00,WUHU216HW,2013-07-25 19:17:00,
2013-07-25 14:27:00,78.6,61.0,30.03,SSW,207,1.8,3.4,55,0.00,,,0.00,WUHU216HW,2013-07-25 19:27:00,
2013-07-25 14:37:00,79.0,61.9,30.02,WSW,258,1.4,3.1,56,0.00,,,0.00,WUHU216HW,2013-07-25 19:37:00,
2013-07-25 14:47:00,79.1,62.0,30.02,WSW,252,2.3,3.4,56,0.00,,,0.00,WUHU216HW,2013-07-25 19:47:00,
2013-07-25 14:57:00,79.1,62.0,30.01,SW,221,1.6,2.5,56,0.00,,,0.00,WUHU216HW,2013-07-25 19:57:00,
2013-07-25 15:08:00,79.1,63.0,30.01,SSW,195,1.5,2.7,58,0.00,,,0.00,WUHU216HW,2013-07-25 20:08:00,
2013-07-25 15:18:00,78.6,62.6,30.01,SSE,158,1.5,3.4,58,0.00,,,0.00,WUHU216HW,2013-07-25 20:18:00,
2013-07-25 15:28:00,77.5,61.5,30.01,NW,315,2.0,3.6,58,0.00,,,0.00,WUHU216HW,2013-07-25 20:28:00,
2013-07-25 15:38:00,77.0,62.5,30.00,SW,236,1.3,2.7,61,0.00,,,0.00,WUHU216HW,2013-07-25 20:38:00,
2013-07-25 15:48:00,77.5,63.0,30.00,SSW,211,1.2,2.0,61,0.00,,,0.00,WUHU216HW,2013-07-25 20:48:00,
2013-07-25 15:58:00,77.3,62.8,30.00,South,184,1.3,2.5,61,0.00,,,0.00,WUHU216HW,2013-07-25 20:58:00,
2013-07-25 16:09:00,77.9,63.4,30.00,WSW,255,1.8,3.1,61,0.00,,,0.00,WUHU216HW,2013-07-25 21:09:00,
2013-07-25 16:19:00,76.8,60.9,30.00,SW,214,1.8,3.4,58,0.00,,,0.00,WUHU216HW,2013-07-25 21:19:00,
2013-07-25 16:29:00,76.4,62.9,30.00,South,186,1.9,3.4,63,0.00,,,0.00,WUHU216HW,2013-07-25 21:29:00,
2013-07-25 16:39:00,75.9,62.4,30.00,South,179,2.0,4.3,63,0.00,,,0.00,WUHU216HW,2013-07-25 21:39:00,
2013-07-25 16:49:00,75.5,62.5,29.99,SSW,203,1.5,2.2,64,0.00,,,0.00,WUHU216HW,2013-07-25 21:49:00,
2013-07-25 16:59:00,75.4,62.8,29.99,SW,216,1.1,2.0,64,0.00,,,0.00,WUHU216HW,2013-07-25 21:59:00,
2013-07-25 17:10:00,75.3,62.7,30.00,WNW,294,1.5,2.7,64,0.00,,,0.00,WUHU216HW,2013-07-25 22:10:00,
2013-07-25 17:20:00,75.0,62.9,30.00,South,182,1.0,2.2,65,0.00,,,0.00,WUHU216HW,2013-07-25 22:20:00,
2013-07-25 17:30:00,74.8,62.7,30.00,SSW,204,1.0,1.8,65,0.00,,,0.00,WUHU216HW,2013-07-25 22:30:00,
2013-07-25 17:40:00,74.6,62.9,29.99,South,184,1.4,3.4,66,0.00,,,0.00,WUHU216HW,2013-07-25 22:40:00,
2013-07-25 17:51:00,74.3,63.1,29.99,SW,223,1.2,2.0,67,0.00,,,0.00,WUHU216HW,2013-07-25 22:51:00,
2013-07-25 18:01:00,73.9,62.3,29.99,South,179,1.9,3.6,66,0.00,,,0.00,WUHU216HW,2013-07-25 23:01:00,
2013-07-25 18:11:00,73.6,62.4,29.99,SSW,207,1.3,2.7,67,0.00,,,0.00,WUHU216HW,2013-07-25 23:11:00,
2013-07-25 18:21:00,73.4,62.2,29.99,South,170,1.6,2.7,67,0.00,,,0.00,WUHU216HW,2013-07-25 23:21:00,
2013-07-25 18:32:00,73.3,62.0,29.99,South,173,1.6,2.5,67,0.00,,,0.00,WUHU216HW,2013-07-25 23:32:00,
2013-07-25 18:42:00,73.0,62.2,29.99,South,177,1.3,2.2,68,0.00,,,0.00,WUHU216HW,2013-07-25 23:42:00,
2013-07-25 18:52:00,72.8,62.4,29.99,SSE,148,0.9,1.6,69,0.00,,,0.00,WUHU216HW,2013-07-25 23:52:00,
2013-07-25 19:03:00,72.1,62.2,29.99,South,187,1.3,2.2,70,0.00,,,0.00,WUHU216HW,2013-07-26 00:03:00,
2013-07-25 19:13:00,71.6,61.7,29.99,South,188,1.2,2.5,70,0.00,,,0.00,WUHU216HW,2013-07-26 00:13:00,
2013-07-25 19:23:00,71.4,61.5,29.98,SSE,157,1.0,1.8,70,0.00,,,0.00,WUHU216HW,2013-07-26 00:23:00,
2013-07-25 19:33:00,71.0,61.1,29.99,South,181,0.7,1.8,70,0.00,,,0.00,WUHU216HW,2013-07-26 00:33:00,
2013-07-25 19:43:00,70.8,61.2,29.98,South,179,1.1,2.9,71,0.00,,,0.00,WUHU216HW,2013-07-26 00:43:00,
2013-07-25 19:53:00,70.5,61.4,29.98,South,188,1.4,2.2,72,0.00,,,0.00,WUHU216HW,2013-07-26 00:53:00,
2013-07-25 20:03:00,70.1,61.0,29.98,ESE,116,1.1,2.0,72,0.00,,,0.00,WUHU216HW,2013-07-26 01:03:00,
2013-07-25 20:14:00,69.8,60.7,29.98,South,180,1.3,2.0,72,0.00,,,0.00,WUHU216HW,2013-07-26 01:14:00,
2013-07-25 20:24:00,69.6,60.6,29.98,SSE,168,0.9,1.8,72,0.00,,,0.00,WUHU216HW,2013-07-26 01:24:00,
2013-07-25 20:34:00,69.3,60.5,29.98,SE,124,0.8,2.0,73,0.00,,,0.00,WUHU216HW,2013-07-26 01:34:00,
2013-07-25 20:44:00,69.4,60.7,29.98,SW,235,0.7,1.1,73,0.00,,,0.00,WUHU216HW,2013-07-26 01:44:00,
2013-07-25 20:55:00,68.9,60.3,29.98,SSE,165,1.1,2.5,73,0.00,,,0.00,WUHU216HW,2013-07-26 01:55:00,
2013-07-25 21:05:00,68.8,60.1,29.99,South,173,1.2,2.5,73,0.00,,,0.00,WUHU216HW,2013-07-26 02:05:00,
2013-07-25 21:15:00,68.8,60.4,29.99,SSW,198,1.2,1.8,74,0.00,,,0.00,WUHU216HW,2013-07-26 02:15:00,
2013-07-25 21:33:00,68.8,60.4,29.99,SE,145,1.0,1.8,74,0.00,,,0.00,WUHU216HW,2013-07-26 02:33:00,
2013-07-25 21:46:00,68.5,61.0,29.99,SSW,192,1.5,3.1,76,0.00,,,0.00,WUHU216HW,2013-07-26 02:46:00,
2013-07-25 21:56:00,68.3,60.8,29.99,South,181,1.6,2.7,76,0.00,,,0.00,WUHU216HW,2013-07-26 02:56:00,
2013-07-25 22:06:00,68.3,61.0,29.99,South,190,1.4,3.4,77,0.00,,,0.00,WUHU216HW,2013-07-26 03:06:00,
2013-07-25 22:16:00,67.4,61.0,29.99,SSE,164,1.2,1.8,79,0.00,,,0.00,WUHU216HW,2013-07-26 03:16:00,
2013-07-25 22:31:00,66.9,61.1,29.98,SSE,154,1.3,2.5,81,0.00,,,0.00,WUHU216HW,2013-07-26 03:31:00,
2013-07-25 22:37:00,66.8,60.9,29.97,East,101,1.2,2.5,81,0.00,,,0.00,WUHU216HW,2013-07-26 03:37:00,
2013-07-25 22:47:00,66.4,60.7,29.96,SSW,211,1.3,2.7,81,0.00,,,0.00,WUHU216HW,2013-07-26 03:47:00,
2013-07-25 22:57:00,66.3,60.5,29.96,SE,124,0.9,1.3,81,0.00,,,0.00,WUHU216HW,2013-07-26 03:57:00,
2013-07-25 23:07:00,66.0,60.3,29.96,ESE,108,0.5,0.9,81,0.00,,,0.00,WUHU216HW,2013-07-26 04:07:00,
2013-07-25 23:17:00,66.0,60.3,29.96,ESE,123,0.6,1.8,81,0.00,,,0.00,WUHU216HW,2013-07-26 04:17:00,
2013-07-25 23:27:00,66.0,60.6,29.96,SE,145,0.8,1.6,82,0.00,,,0.00,WUHU216HW,2013-07-26 04:27:00,
2013-07-25 23:37:00,66.0,60.9,29.96,West,281,1.0,1.8,83,0.00,,,0.00,WUHU216HW,2013-07-26 04:37:00,
2013-07-25 23:47:00,66.0,60.9,29.95,South,172,1.9,4.0,83,0.00,,,0.00,WUHU216HW,2013-07-26 04:47:00,
2013-07-25 23:57:00,65.6,60.5,29.95,SSW,211,1.2,2.5,83,0.00,,,0.00,WUHU216HW,2013-07-26 04:57:00,